Tracking 35237 objects as of 4-Sep-2026
HD Live streaming from Space Station
objects crossing your sky now

STARLINK-37704

Track STARLINK-37704 now!
10-day predictions
STARLINK-37704 is classified as:


NORAD ID: 100501
Int'l Code: 2026-196AE
Launch date: August 25, 2026
Source: United States (US)
Launch site: AIR FORCE EASTERN TEST RANGE (AFETR)
Your satellite tracking list
Your tracking list is empty




NASA's NSSDC Master Catalog

Two Line Element Set (TLE):
1 A0501U 26196AE  26247.61917626 -.00826772  00000-0 -30502-2 0  9995
2 A0501  53.1595 321.3223 0000748  44.2372 315.8714 15.89334837  2847
Source of the keplerian elements: AFSPC